Weather History for KTWM - April, 2013

Change the Weather History Date:

Friday, April 12, 2013

  Actual Average Record
Temperature  
Mean Temperature 26 °F -  
Max Temperature 28 °F 44 °F 77 °F (2015)
Min Temperature 23 °F 29 °F 11 °F (1950)
Degree Days  
Heating Degree Days 40    
Moisture  
Dew Point 21 °F    
Average Humidity 78    
Maximum Humidity 86    
Minimum Humidity 69    
Precipitation  
Precipitation 0.04 in - - ()
Sea Level Pressure  
Sea Level Pressure 29.76 in    
Wind  
Wind Speed 17 mph (NE)    
Max Wind Speed 26 mph    
Max Gust Speed 40 mph    
Visibility 2 miles    
Events Snow    
Averages and records for this station are not official NWS values.
T = Trace of Precipitation, MM = Missing Value Source: NWS Daily Summary

Daily Weather History Graph

Daily Weather History Graph

Search for Another Location

Airport or City:

Trip Planner

Search our weather history database for the weather conditions in past years. The results will help you decide how hot, cold, wet, or windy it might be!

Date:

Astronomy

Apr. 12, 2013 Rise Set
Actual Time 6:24 AM CDT 7:51 PM CDT
Civil Twilight 5:52 AM CDT 8:23 PM CDT
Nautical Twilight 5:14 AM CDT 9:02 PM CDT
Astronomical Twilight 4:32 AM CDT 9:43 PM CDT
Moon 7:25 AM CDT (4/12) 10:33 PM CDT (4/12)
Length of Visible Light 14h 31m
Length of Day
13h 27m
Waxing Crescent, 5% of the Moon is Illuminated
Apr 12
Waxing Crescent
Apr 18
First Quarter
Apr 25
Full
May 2
Last Quarter
May 9
New

Hourly Weather History & Observations

Time (CDT) Temp. Windchill Dew Point Humidity Pressure Visibility Wind Dir Wind Speed Gust Speed Precip Events Conditions
12:11 AM 28.4 °F 15.8 °F 23.0 °F 80% 29.80 in 1.5 mi ENE 18.4 mph 31.1 mph N/A Snow Light Snow
12:31 AM 28.4 °F 14.1 °F 23.0 °F 80% 29.79 in 0.8 mi ENE 24.2 mph 35.7 mph N/A Snow Light Snow
12:51 AM 28.4 °F 14.1 °F 23.0 °F 80% 29.78 in 1.0 mi ENE 24.2 mph 34.5 mph N/A Snow Snow
1:11 AM 28.4 °F 14.4 °F 23.0 °F 80% 29.78 in 1.0 mi ENE 23.0 mph 36.8 mph N/A Snow Light Snow
1:31 AM 28.4 °F 14.4 °F 23.0 °F 80% 29.78 in 1.2 mi ENE 23.0 mph 36.8 mph N/A Snow Light Snow
1:51 AM 28.4 °F 16.6 °F 23.0 °F 80% 29.78 in 0.8 mi ENE 16.1 mph 23.0 mph N/A Snow Snow
2:11 AM 28.4 °F 14.7 °F 23.0 °F 80% 29.76 in 0.8 mi ENE 21.9 mph 32.2 mph 0.01 in Snow Snow
2:31 AM 28.4 °F 14.1 °F 23.0 °F 80% 29.75 in 0.8 mi ENE 24.2 mph 32.2 mph 0.01 in Snow Light Snow
2:51 AM 28.4 °F 14.4 °F 23.0 °F 80% 29.75 in 1.2 mi ENE 23.0 mph 31.1 mph 0.01 in Snow Light Snow
3:11 AM 26.6 °F 12.0 °F 23.0 °F 86% 29.74 in 0.8 mi ENE 23.0 mph 33.4 mph 0.01 in Snow Light Snow
3:31 AM 26.6 °F 11.1 °F 23.0 °F 86% 29.74 in 0.8 mi ENE 26.5 mph 34.5 mph 0.01 in Snow Snow
3:51 AM 26.6 °F 12.7 °F 23.0 °F 86% 29.74 in 0.8 mi ENE 20.7 mph 32.2 mph 0.01 in Snow Light Snow
4:11 AM 26.6 °F 12.0 °F 21.2 °F 80% 29.74 in 0.8 mi ENE 23.0 mph 36.8 mph N/A Snow Snow
4:31 AM 26.6 °F 12.4 °F 21.2 °F 80% 29.75 in 1.0 mi ENE 21.9 mph 31.1 mph N/A Snow Light Snow
4:51 AM 26.6 °F 12.4 °F 21.2 °F 80% 29.75 in 1.2 mi ENE 21.9 mph 33.4 mph N/A Snow Light Snow
5:11 AM 26.6 °F 12.7 °F 21.2 °F 80% 29.74 in 1.0 mi ENE 20.7 mph 35.7 mph N/A Snow Light Snow
5:31 AM 26.6 °F 13.1 °F 21.2 °F 80% 29.74 in 1.0 mi ENE 19.6 mph 29.9 mph 0.01 in Snow Light Snow
5:51 AM 26.6 °F 12.0 °F 21.2 °F 80% 29.73 in 1.5 mi ENE 23.0 mph 31.1 mph 0.01 in Snow Light Snow
6:11 AM 26.6 °F 12.7 °F 21.2 °F 80% 29.73 in 1.2 mi NE 20.7 mph 33.4 mph N/A Snow Light Snow
6:31 AM 26.6 °F 12.4 °F 21.2 °F 80% 29.73 in 0.8 mi ENE 21.9 mph 40.3 mph N/A Snow Snow
6:51 AM 26.6 °F 11.4 °F 21.2 °F 80% 29.73 in 0.2 mi ENE 25.3 mph 39.1 mph N/A Snow Snow
7:11 AM 26.6 °F 13.1 °F 21.2 °F 80% 29.73 in 0.5 mi ENE 19.6 mph 29.9 mph N/A Snow Light Snow
7:32 AM 26.6 °F 13.4 °F 21.2 °F 80% 29.73 in 0.2 mi NE 18.4 mph 27.6 mph N/A Snow Snow
7:51 AM 26.6 °F 13.4 °F 21.2 °F 80% 29.73 in 1.0 mi NE 18.4 mph 32.2 mph N/A Snow Light Snow
8:11 AM 26.6 °F 12.0 °F 21.2 °F 80% 29.73 in 1.5 mi ENE 23.0 mph 31.1 mph N/A Snow Light Snow
8:32 AM 26.6 °F 15.7 °F 21.2 °F 80% 29.73 in 1.2 mi NE 12.7 mph 28.8 mph N/A Snow Light Snow
8:51 AM 26.6 °F 14.7 °F 21.2 °F 80% 29.74 in 1.0 mi ENE 15.0 mph 31.1 mph N/A Snow Light Snow
9:11 AM 26.6 °F 13.8 °F 21.2 °F 80% 29.73 in 1.2 mi NE 17.3 mph 25.3 mph N/A Snow Light Snow
9:31 AM 26.6 °F 14.3 °F 21.2 °F 80% 29.73 in 0.8 mi NE 16.1 mph 25.3 mph N/A Snow Light Snow
9:51 AM 26.6 °F 15.2 °F 21.2 °F 80% 29.73 in 1.5 mi NE 13.8 mph 20.7 mph N/A Snow Light Snow
10:11 AM 26.6 °F 15.2 °F 21.2 °F 80% 29.73 in 1.2 mi NE 13.8 mph 20.7 mph N/A Snow Light Snow
10:31 AM 26.6 °F 14.3 °F 21.2 °F 80% 29.74 in 1.0 mi NE 16.1 mph 24.2 mph N/A Snow Light Snow
10:51 AM 26.6 °F 16.2 °F 21.2 °F 80% 29.74 in 1.0 mi NE 11.5 mph 21.9 mph N/A Snow Light Snow
11:11 AM 26.6 °F 14.3 °F 21.2 °F 80% 29.75 in 0.8 mi NE 16.1 mph 20.7 mph N/A Snow Light Snow
11:31 AM 26.6 °F 14.7 °F 19.4 °F 74% 29.75 in 0.8 mi NE 15.0 mph 21.9 mph N/A Snow Light Snow
11:51 AM 26.6 °F 16.8 °F 19.4 °F 74% 29.75 in 1.0 mi NE 10.4 mph 19.6 mph N/A Snow Light Snow
12:11 PM 26.6 °F 15.7 °F 19.4 °F 74% 29.75 in 1.0 mi NE 12.7 mph 21.9 mph N/A Snow Light Snow
12:32 PM 26.6 °F 14.7 °F 19.4 °F 74% 29.75 in 1.2 mi NNE 15.0 mph 21.9 mph N/A Snow Light Snow
12:51 PM 26.6 °F 14.7 °F 19.4 °F 74% 29.75 in 1.2 mi NNE 15.0 mph 20.7 mph N/A Snow Light Snow
1:11 PM 26.6 °F 15.7 °F 19.4 °F 74% 29.75 in 1.0 mi NE 12.7 mph - N/A Snow Light Snow
1:32 PM 26.6 °F 15.2 °F 19.4 °F 74% 29.75 in 1.2 mi NE 13.8 mph 19.6 mph N/A Snow Light Snow
1:51 PM 26.6 °F 15.2 °F 19.4 °F 74% 29.75 in 1.2 mi NNE 13.8 mph 23.0 mph N/A Snow Light Snow
2:11 PM 26.6 °F 15.7 °F 19.4 °F 74% 29.75 in 1.0 mi NNE 12.7 mph 21.9 mph N/A Snow Light Snow
2:32 PM 28.4 °F 19.1 °F 21.2 °F 74% 29.75 in 1.0 mi NNE 10.4 mph 16.1 mph N/A Snow Light Snow
2:51 PM 28.4 °F 18.0 °F 21.2 °F 74% 29.75 in 1.5 mi NE 12.7 mph 19.6 mph N/A Snow Light Snow
3:11 PM 28.4 °F 17.0 °F 21.2 °F 74% 29.75 in 1.8 mi NE 15.0 mph 20.7 mph N/A Snow Light Snow
3:32 PM 28.4 °F 19.7 °F 21.2 °F 74% 29.76 in 2.5 mi NE 9.2 mph 16.1 mph N/A Snow Light Snow
3:51 PM 28.4 °F 18.5 °F 19.4 °F 69% 29.76 in 2.5 mi NE 11.5 mph 19.6 mph N/A   Haze
4:11 PM 28.4 °F 18.5 °F 21.2 °F 74% 29.76 in 3.0 mi ENE 11.5 mph - N/A Snow Light Snow
4:32 PM 28.4 °F 19.7 °F 21.2 °F 74% 29.77 in 1.8 mi NE 9.2 mph - N/A Snow Light Snow
4:51 PM 28.4 °F 17.5 °F 19.4 °F 69% 29.77 in 2.5 mi ENE 13.8 mph 17.3 mph N/A Snow Light Snow
5:11 PM 28.4 °F 18.0 °F 19.4 °F 69% 29.78 in 2.0 mi ENE 12.7 mph 16.1 mph N/A Snow Light Snow
5:31 PM 28.4 °F 18.5 °F 21.2 °F 74% 29.78 in 2.5 mi ENE 11.5 mph - N/A Snow Light Snow
5:51 PM 26.6 °F 18.2 °F 21.2 °F 80% 29.79 in 1.8 mi ENE 8.1 mph - N/A Snow Light Snow
6:11 PM 26.6 °F 16.8 °F 19.4 °F 74% 29.79 in 2.5 mi NE 10.4 mph - N/A Snow Light Snow
6:32 PM 26.6 °F 17.5 °F 19.4 °F 74% 29.79 in 2.5 mi ENE 9.2 mph 17.3 mph N/A Snow Light Snow
6:51 PM 26.6 °F 18.2 °F 19.4 °F 74% 29.79 in 2.0 mi NE 8.1 mph - N/A Snow Light Snow
7:11 PM 26.6 °F 17.5 °F 19.4 °F 74% 29.79 in 4.0 mi ENE 9.2 mph - N/A Snow Light Snow
7:31 PM 24.8 °F 16.9 °F 19.4 °F 80% 29.79 in 2.5 mi NE 6.9 mph - N/A Snow Light Snow
7:51 PM 24.8 °F 17.9 °F 19.4 °F 80% 29.79 in 4.0 mi ENE 5.8 mph - N/A Snow Light Snow
8:11 PM 24.8 °F 19.1 °F 19.4 °F 80% 29.80 in 7.0 mi NE 4.6 mph - N/A Snow Light Snow
8:31 PM 24.8 °F 16.1 °F 19.4 °F 80% 29.80 in 7.0 mi ENE 8.1 mph - N/A Snow Light Snow
8:51 PM 24.8 °F 16.9 °F 19.4 °F 80% 29.80 in 2.5 mi NE 6.9 mph - N/A Snow Light Snow
9:11 PM 24.8 °F - 19.4 °F 80% 29.80 in 3.0 mi Calm Calm - N/A Snow Light Snow
9:31 PM 24.8 °F 17.9 °F 19.4 °F 80% 29.80 in 1.2 mi NNE 5.8 mph - N/A Snow Light Snow
9:51 PM 23.0 °F 17.0 °F 19.4 °F 86% 29.81 in 1.8 mi NNE 4.6 mph - N/A Snow Light Snow
10:11 PM 23.0 °F 18.4 °F 19.4 °F 86% 29.80 in 2.0 mi NNE 3.5 mph - N/A Snow Light Snow
10:31 PM 23.0 °F - 17.6 °F 80% 29.81 in 1.8 mi Calm Calm - 0.01 in Snow Light Snow
10:51 PM 23.0 °F - 17.6 °F 80% 29.80 in 1.8 mi Calm Calm - 0.01 in Snow Light Snow
11:11 PM 23.0 °F - 17.6 °F 80% 29.80 in 3.0 mi Calm Calm - N/A Snow Light Snow
11:31 PM 23.0 °F - 17.6 °F 80% 29.80 in 7.0 mi Calm Calm - N/A Snow Light Snow
11:51 PM 23.0 °F - 17.6 °F 80% 29.80 in 7.0 mi Calm Calm - N/A   Overcast